Regional Weather Roundup
Issued by NWS Cleveland, OH

Home | Current Version | Previous Version | Graphics & Text | Print | Product List | Glossary On
Versions: 1 2 3 4 5 6 7 8 9 10 11 12 13 14 15 16 17 18 19 20 21 22 23 24 25 26 27 28 29 30 31 32 33 34 35 36 37 38 39 40 41 42 43 44 45 46 47 48 49 50
000
ASUS41 KCLE 250602
RWRCLE
OHIO REGIONAL WEATHER ROUNDUP
NATIONAL WEATHER SERVICE CLEVELAND, OH
200 AM EDT SAT MAR 25 2017

NOTE: "FAIR" INDICATES FEW OR NO CLOUDS BELOW 12,000 FEET WITH NO
SIGNIFICANT WEATHER AND/OR OBSTRUCTIONS TO VISIBILITY.

OHZ001>008-015>018-024>027-034-035-043-044-250700-
   NORTHWEST OHIO

CITY           SKY/WX    TMP DP  RH WIND       PRES   REMARKS
DEFIANCE       CLOUDY    58  51  78 S5        30.05R
FINDLAY        CLOUDY    61  51  70 S10       30.06S
TOLEDO EXPRESS MOCLDY    63  53  70 SW7       30.05R
TOLEDO EXEC    CLOUDY    46  41  82 NE9       30.08R
LIMA           CLOUDY    62  52  69 S9        30.07S
$$

OHZ009>014-019>023-028>033-038-089-250700-
   NORTHEAST OHIO

CITY           SKY/WX    TMP DP  RH WIND       PRES   REMARKS
CLE-HOPKINS    MOCLDY    63  51  65 SW5       30.09S
CLE-LAKEFRONT  MOCLDY    51  44  77 S3        30.06R
CUY CO. ARPT   NOT AVBL
LORAIN-ELYRIA  MOCLDY    58  48  69 N8        30.07S
ASHTABULA      CLOUDY    61  51  70 N10       30.08R
AKRON-CANTON   MOCLDY    64  51  62 SW8       30.10S
WOOSTER        CLOUDY    62  51  67 SW10      30.09S
MANSFIELD      CLOUDY    63  52  67 MISG      30.09F
YOUNGSTOWN     MOCLDY    61  51  70 SW9       30.09S
$$

OHZ042-051>053-060>062-070>072-077>081-250700-
  SOUTHWEST OHIO

CITY           SKY/WX    TMP DP  RH WIND       PRES   REMARKS
CINC-COVINGTON CLOUDY    60  52  74 S7        30.13F
CINC-LUNKEN    CLOUDY    55  52  89 CALM      30.14F
HAMILTON       PTCLDY    66  54  65 S3        30.13F
DAYTON         CLOUDY    63  52  67 SW14      30.11S
WRIGHT-PAT AFB CLOUDY    64  53  67 SW14      30.10F
DAYTON GENERAL PTCLDY    63  52  67 SW12      30.11F
WILMINGTON     PTCLDY    60  52  74 SW10      30.13F
$$

OHZ036-037-039>041-045>050-054>059-063>069-073>076-082>088-250700-
  CENTRAL AND SOUTHEAST OHIO

CITY           SKY/WX    TMP DP  RH WIND       PRES   REMARKS
COLUMBUS       CLOUDY    62  52  69 S7        30.12F
OSU AIRPORT    CLOUDY    61  53  75 S8        30.10F
BOLTON FIELD   CLOUDY    58  52  79 S8        30.12F
RICKENBACK AFB CLOUDY    60  52  75 S8        30.11F
NEWARK         CLOUDY    64  51  62 SW7       30.11F
MARION         CLOUDY    60  51  72 SW10      30.09F
LANCASTER      MOCLDY    66  52  60 SW9       30.13F
ZANESVILLE     CLOUDY    62  50  64 S5        30.12F
NEW PHILLY     NOT AVBL
$$




USA.gov is the U.S. government's official web portal to all federal, state and local government web resources and services.